| time (UTC) | temp F | wind direction | speed knots | gust knots | rain 1hr in | rain 24hr in | rain mn in | humidity % | barometer mb |
| 20260903042530 | 80 | 266 | 0.0 | 0.0 | 0.00 | 0.00 | 0.00 | 86 | 1013.9 |
| 20260903041021 | 80 | 268 | 0.0 | 0.9 | 0.00 | 0.00 | 0.00 | 85 | 1013.8 |
| 20260903035510 | 81 | 285 | 0.0 | 0.0 | 0.00 | 0.00 | 0.00 | 83 | 1013.6 |
| 20260903034002 | 82 | 272 | 0.0 | 0.0 | 0.00 | 0.00 | 0.00 | 83 | 1013.4 |
| 20260903032500 | 82 | 272 | 0.0 | 0.0 | 0.00 | 0.00 | 0.00 | 82 | 1013.1 |
| 20260903030951 | 83 | 270 | 0.0 | 0.0 | 0.00 | 0.00 | 0.00 | 80 | 1013.0 |
| 20260903025440 | 83 | 283 | 0.0 | 0.9 | 0.00 | 0.00 | 0.00 | 80 | 1013.0 |
| 20260903023931 | 84 | 276 | 0.0 | 0.0 | 0.00 | 0.00 | 0.00 | 79 | 1013.3 |
| 20260903022420 | 83 | 278 | 0.9 | 1.7 | 0.00 | 0.00 | 0.00 | 79 | 1013.6 |
| 20260903020930 | 84 | 278 | 0.0 | 0.0 | 0.00 | 0.00 | 0.00 | 78 | 1013.7 |
| 20260903015401 | 84 | 281 | 0.9 | 1.7 | 0.00 | 0.00 | 0.00 | 78 | 1013.4 |
| 20260903013850 | 84 | 273 | 0.0 | 0.0 | 0.00 | 0.00 | 0.00 | 77 | 1013.3 |
| 20260903012400 | 85 | 282 | 0.0 | 0.0 | 0.00 | 0.00 | 0.00 | 76 | 1013.4 |
| 20260903010830 | 85 | 276 | 0.0 | 0.0 | 0.00 | 0.00 | 0.00 | 75 | 1013.2 |
| 20260903005320 | 86 | 270 | 0.0 | 0.0 | 0.00 | 0.00 | 0.00 | 74 | 1013.0 |
| 20260903003810 | 86 | 273 | 0.0 | 0.9 | 0.00 | 0.00 | 0.00 | 72 | 1013.2 |
| 20260903002301 | 86 | 270 | 0.0 | 0.0 | 0.00 | 0.00 | 0.00 | 72 | 1013.2 |
| 20260903000750 | 87 | 267 | 0.0 | 0.9 | 0.00 | 0.00 | 0.00 | 71 | 1013.3 |
| 20260902235305 | 88 | 281 | 0.0 | 0.0 | 0.00 | 0.00 | 0.00 | 69 | 1013.3 |
| 20260902233740 | 88 | 273 | 0.0 | 0.0 | 0.00 | 0.00 | 0.00 | 67 | 1013.3 |
| 20260902232231 | 89 | 278 | 0.9 | 1.7 | 0.00 | 0.00 | 0.00 | 65 | 1013.2 |
| 20260902230720 | 90 | 274 | 0.9 | 1.7 | 0.00 | 0.00 | 0.00 | 64 | 1013.2 |
| 20260902225211 | 91 | 272 | 0.0 | 0.0 | 0.00 | 0.00 | 0.00 | 62 | 1013.1 |
| 20260902223700 | 91 | 275 | 0.0 | 0.0 | 0.00 | 0.00 | 0.00 | 62 | 1013.3 |
| 20260902222151 | 92 | 253 | 0.0 | 0.9 | 0.00 | 0.00 | 0.00 | 61 | 1013.1 |
| 20260902220700 | 92 | 272 | 1.7 | 2.6 | 0.00 | 0.00 | 0.00 | 59 | 1013.3 |
| 20260902215131 | 94 | 250 | 0.9 | 0.9 | 0.00 | 0.00 | 0.00 | 58 | 1013.3 |
| 20260902213620 | 94 | 278 | 0.9 | 2.6 | 0.00 | 0.00 | 0.00 | 55 | 1013.4 |
| 20260902212130 | 94 | 268 | 1.7 | 2.6 | 0.00 | 0.00 | 0.00 | 54 | 1013.6 |
| 20260902210600 | 94 | 274 | 0.0 | 0.9 | 0.00 | 0.00 | 0.00 | 56 | 1013.5 |
| 20260902205050 | 96 | 279 | 0.0 | 0.9 | 0.00 | 0.00 | 0.00 | 57 | 1013.7 |
| 20260902203540 | 95 | 284 | 0.9 | 1.7 | 0.00 | 0.00 | 0.00 | 56 | 1013.8 |
| 20260902202051 | 94 | 281 | 0.9 | 1.7 | 0.00 | 0.00 | 0.00 | 56 | 1013.8 |
| 20260902200551 | 94 | 267 | 0.0 | 0.0 | 0.00 | 0.00 | 0.00 | 57 | 1014.2 |
| 20260902195020 | 96 | 267 | 0.9 | 1.7 | 0.00 | 0.00 | 0.00 | 53 | 1014.1 |
| 20260902193511 | 97 | 272 | 0.0 | 0.0 | 0.00 | 0.00 | 0.00 | 54 | 1014.6 |
| 20260902192003 | 96 | 280 | 0.9 | 0.9 | 0.00 | 0.00 | 0.00 | 54 | 1014.7 |
| 20260902190501 | 97 | 278 | 0.0 | 0.0 | 0.00 | 0.00 | 0.00 | 58 | 1014.8 |
| 20260902184950 | 97 | 328 | 0.9 | 2.6 | 0.00 | 0.00 | 0.00 | 54 | 1014.8 |
| 20260902183501 | 96 | 282 | 0.0 | 0.9 | 0.00 | 0.00 | 0.00 | 55 | 1015.1 |
| 20260902181931 | 96 | 278 | 0.0 | 0.0 | 0.00 | 0.00 | 0.00 | 55 | 1015.0 |
| 20260902180420 | 95 | 274 | 1.7 | 2.6 | 0.00 | 0.00 | 0.00 | 56 | 1015.1 |
| 20260902174911 | 94 | 278 | 0.0 | 0.0 | 0.00 | 0.00 | 0.00 | 61 | 1015.4 |
| 20260902173401 | 94 | 275 | 0.0 | 0.9 | 0.00 | 0.00 | 0.00 | 58 | 1015.6 |
| 20260902171850 | 94 | 283 | 0.0 | 0.0 | 0.00 | 0.00 | 0.00 | 61 | 1015.6 |
| 20260902170341 | 95 | 280 | 0.0 | 0.0 | 0.00 | 0.00 | 0.00 | 58 | 1015.8 |
| 20260902164831 | 94 | 271 | 0.0 | 0.9 | 0.00 | 0.00 | 0.00 | 62 | 1016.1 |
| 20260902163320 | 93 | 279 | 0.0 | 0.9 | 0.00 | 0.00 | 0.00 | 63 | 1016.2 |
| 20260902161811 | 92 | 275 | 0.0 | 0.0 | 0.00 | 0.00 | 0.00 | 64 | 1016.2 |
| 20260902160300 | 92 | 283 | 0.0 | 0.9 | 0.00 | 0.00 | 0.00 | 65 | 1016.3 |
| 20260902154811 | 93 | 283 | 0.0 | 0.9 | 0.00 | 0.00 | 0.00 | 63 | 1016.3 |
| 20260902153241 | 90 | 276 | 0.0 | 0.9 | 0.00 | 0.00 | 0.00 | 66 | 1016.2 |
| 20260902151730 | 90 | 275 | 0.9 | 2.6 | 0.00 | 0.00 | 0.00 | 65 | 1016.1 |
| 20260902150220 | 91 | 273 | 0.0 | 0.0 | 0.00 | 0.00 | 0.00 | 67 | 1016.0 |
| 20260902144711 | 90 | 273 | 0.9 | 1.7 | 0.00 | 0.00 | 0.00 | 64 | 1015.9 |
| 20260902143201 | 90 | 269 | 0.0 | 0.0 | 0.00 | 0.00 | 0.00 | 69 | 1016.0 |
| 20260902141710 | 89 | 278 | 0.0 | 0.0 | 0.00 | 0.00 | 0.00 | 71 | 1015.8 |
| 20260902140141 | 87 | 276 | 0.0 | 0.0 | 0.00 | 0.00 | 0.00 | 74 | 1015.8 |
| 20260902134630 | 86 | 278 | 0.0 | 0.0 | 0.00 | 0.00 | 0.00 | 75 | 1015.7 |
| 20260902133141 | 85 | 276 | 0.0 | 0.0 | 0.00 | 0.00 | 0.00 | 77 | 1015.8 |
| 20260902131610 | 83 | 248 | 0.0 | 0.0 | 0.00 | 0.00 | 0.00 | 82 | 1015.7 |
| 20260902124550 | 77 | 273 | 0.0 | 0.0 | 0.00 | 0.00 | 0.00 | 97 | 1015.7 |
| 20260902123101 | 75 | 279 | 0.0 | 0.0 | 0.00 | 0.00 | 0.00 | 99 | 1016.0 |
| 20260902121531 | 75 | 283 | 0.0 | 0.0 | 0.00 | 0.00 | 0.00 | 99 | 1015.8 |
| 20260902120021 | 74 | 228 | 0.0 | 0.0 | 0.00 | 0.00 | 0.00 | 99 | 1015.7 |
| 20260902114510 | 74 | 264 | 0.0 | 0.0 | 0.00 | 0.00 | 0.00 | 99 | 1015.6 |
| 20260902113002 | 74 | 266 | 0.0 | 0.0 | 0.00 | 0.00 | 0.00 | 99 | 1015.6 |
| 20260902111502 | 73 | 272 | 0.0 | 0.0 | 0.00 | 0.00 | 0.00 | 99 | 1015.5 |
| 20260902110000 | 74 | 272 | 0.0 | 0.0 | 0.00 | 0.00 | 0.00 | 99 | 1015.7 |
| 20260902104450 | 73 | 272 | 0.0 | 0.0 | 0.00 | 0.00 | 0.00 | 99 | 1015.7 |
| 20260902103000 | 74 | 272 | 0.0 | 0.0 | 0.00 | 0.00 | 0.00 | 99 | 1015.6 |
| 20260902101431 | 74 | 272 | 0.0 | 0.0 | 0.00 | 0.00 | 0.00 | 99 | 1015.4 |
| 20260902095921 | 74 | 263 | 0.0 | 0.0 | 0.00 | 0.00 | 0.00 | 99 | 1015.5 |
| 20260902094431 | 74 | 263 | 0.0 | 0.0 | 0.00 | 0.00 | 0.00 | 99 | 1015.3 |
| 20260902092900 | 74 | 264 | 0.0 | 0.0 | 0.00 | 0.00 | 0.00 | 99 | 1015.5 |
| 20260902091351 | 74 | 264 | 0.0 | 0.0 | 0.00 | 0.00 | 0.00 | 99 | 1015.5 |
| 20260902085840 | 73 | 265 | 0.0 | 0.0 | 0.00 | 0.00 | 0.00 | 99 | 1015.3 |
| 20260902084331 | 73 | 265 | 0.0 | 0.0 | 0.00 | 0.00 | 0.00 | 98 | 1015.4 |
| 20260902082820 | 73 | 265 | 0.0 | 0.0 | 0.00 | 0.00 | 0.00 | 98 | 1015.3 |
| 20260902081310 | 73 | 265 | 0.0 | 0.0 | 0.00 | 0.00 | 0.00 | 98 | 1015.2 |
| 20260902075801 | 73 | 265 | 0.0 | 0.0 | 0.00 | 0.00 | 0.00 | 98 | 1015.1 |
| 20260902074311 | 72 | 265 | 0.0 | 0.0 | 0.00 | 0.00 | 0.00 | 98 | 1015.0 |
| 20260902072741 | 73 | 264 | 0.0 | 0.0 | 0.00 | 0.00 | 0.00 | 98 | 1015.0 |
| 20260902071231 | 73 | 265 | 0.0 | 0.0 | 0.00 | 0.00 | 0.00 | 98 | 1014.8 |
| 20260902065720 | 73 | 265 | 0.0 | 0.0 | 0.00 | 0.00 | 0.00 | 98 | 1014.7 |
| 20260902064210 | 73 | 265 | 0.0 | 0.0 | 0.00 | 0.00 | 0.00 | 98 | 1014.6 |
| 20260902062704 | 72 | 265 | 0.0 | 0.0 | 0.00 | 0.00 | 0.00 | 98 | 1015.0 |
| 20260902061220 | 73 | 265 | 0.0 | 0.0 | 0.00 | 0.00 | 0.00 | 97 | 1015.0 |
| 20260902055650 | 73 | 265 | 0.0 | 0.0 | 0.00 | 0.00 | 0.00 | 97 | 1015.2 |
| 20260902054140 | 73 | 265 | 0.0 | 0.0 | 0.00 | 0.00 | 0.00 | 97 | 1015.2 |
| 20260902052630 | 73 | 265 | 0.0 | 0.0 | 0.00 | 0.00 | 0.00 | 97 | 1015.2 |
| 20260902051121 | 73 | 265 | 0.0 | 0.0 | 0.00 | 0.00 | 0.00 | 97 | 1015.4 |
| 20260902045611 | 72 | 265 | 0.0 | 0.0 | 0.00 | 0.00 | 0.00 | 96 | 1015.3 |
| 20260902044100 | 73 | 265 | 0.0 | 0.0 | 0.00 | 0.00 | 0.00 | 96 | 1015.3 |